Change the Weather History Date:

Wednesday, March 19, 2014

  Actual Average (KSEP) Record (KSEP)
Temperature  
Mean Temperature 52 °F -  
Max Temperature 63 °F 67 °F 88 °F (1963)
Min Temperature 41 °F 45 °F 15 °F (1923)
Degree Days  
Heating Degree Days 13    
Growing Degree Days 2 (Base 50)    
Moisture  
Dew Point 27 °F    
Average Humidity 38    
Maximum Humidity 59    
Minimum Humidity 22    
Precipitation  
Precipitation 0.00 in - - ()
Sea Level Pressure  
Sea Level Pressure 30.15 in    
Wind  
Wind Speed 13 mph (North)    
Max Wind Speed 22 mph    
Max Gust Speed 31 mph    
Visibility 10 miles    
Events      
Averages and records for this station are not official NWS values.
T = Trace of Precipitation, MM = Missing Value Source: NWS Daily Summary

Daily Weather History Graph

Daily Weather History Graph

Search for Another Location

Airport or City:

Trip Planner

Search our weather history database for the weather conditions in past years. The results will help you decide how hot, cold, wet, or windy it might be!

Date:

Astronomy

Mar. 19, 2014 Rise Set
Actual Time 7:39 AM CDT 7:45 PM CDT
Civil Twilight 7:15 AM CDT 8:09 PM CDT
Nautical Twilight 6:46 AM CDT 8:38 PM CDT
Astronomical Twilight 6:18 AM CDT 9:06 PM CDT
Moon 10:52 PM CDT (3/19) 9:17 AM CDT (3/19)
Length of Visible Light 12h 54m
Length of Day
12h 05m
Waning Gibbous, 91% of the Moon is Illuminated
Mar 19
Waning Gibbous
Mar 23
Last Quarter
Mar 30
New
Apr 7
First Quarter
Apr 15
Full

Hourly Weather History & Observations

Time (CDT) Temp. Windchill Dew Point Humidity Pressure Visibility Wind Dir Wind Speed Gust Speed Precip Events Conditions
12:15 AM 61.7 °F - 22.5 °F 22% 29.94 in 5.0 mi North 16.1 mph 21.9 mph N/A   Haze
12:35 AM 60.6 °F - 23.0 °F 24% 29.95 in 5.0 mi North 18.4 mph 25.3 mph N/A   Haze
12:55 AM 59.9 °F - 22.1 °F 23% 29.96 in 7.0 mi North 15.0 mph 21.9 mph N/A   Overcast
1:15 AM 58.6 °F - 21.9 °F 24% 29.97 in 10.0 mi North 17.3 mph 24.2 mph N/A   Overcast
1:35 AM 57.6 °F - 22.8 °F 26% 29.99 in 10.0 mi North 17.3 mph 24.2 mph N/A   Overcast
1:55 AM 55.9 °F - 23.9 °F 29% 30.01 in 7.0 mi North 15.0 mph - N/A   Overcast
2:15 AM 55.0 °F - 24.8 °F 31% 30.02 in 7.0 mi North 17.3 mph 20.7 mph N/A   Overcast
2:35 AM 53.8 °F - 25.0 °F 33% 30.03 in 10.0 mi North 16.1 mph 24.2 mph N/A   Overcast
2:55 AM 52.0 °F - 23.9 °F 34% 30.04 in 10.0 mi North 21.9 mph 31.1 mph N/A   Overcast
3:15 AM 50.4 °F - 23.9 °F 36% 30.05 in 10.0 mi North 16.1 mph 21.9 mph N/A   Scattered Clouds
3:35 AM 49.1 °F - 25.0 °F 39% 30.05 in 10.0 mi North 19.6 mph 27.6 mph N/A   Clear
3:55 AM 48.4 °F - 26.1 °F 42% 30.05 in 10.0 mi NNW 16.1 mph - N/A   Clear
4:15 AM 47.5 °F - 26.2 °F 44% 30.05 in 10.0 mi NNW 18.4 mph 21.9 mph N/A   Clear
4:35 AM 46.9 °F - 26.4 °F 45% 30.05 in 10.0 mi NNW 15.0 mph 23.0 mph N/A   Clear
4:55 AM 46.0 °F 39.0 °F 26.6 °F 47% 30.06 in 10.0 mi North 17.3 mph 20.7 mph N/A   Clear
5:15 AM 45.5 °F 38.6 °F 27.0 °F 48% 30.08 in 10.0 mi NNW 16.1 mph 20.7 mph N/A   Clear
5:35 AM 44.6 °F 38.4 °F 27.3 °F 51% 30.08 in 10.0 mi NNW 12.7 mph - N/A   Clear
5:55 AM 44.1 °F 37.7 °F 27.5 °F 52% 30.10 in 10.0 mi NNW 12.7 mph - N/A   Clear
6:15 AM 43.7 °F 38.6 °F 27.9 °F 54% 30.12 in 10.0 mi NNW 9.2 mph - N/A   Clear
6:35 AM 43.0 °F 37.2 °F 28.0 °F 56% 30.14 in 10.0 mi NNW 10.4 mph - N/A   Clear
6:55 AM 42.4 °F 35.7 °F 28.0 °F 57% 30.14 in 10.0 mi NNW 12.7 mph - N/A   Clear
7:15 AM 42.3 °F 35.9 °F 28.2 °F 58% 30.15 in 10.0 mi NNW 11.5 mph - N/A   Clear
7:35 AM 41.9 °F 35.9 °F 28.4 °F 59% 30.16 in 10.0 mi NNW 10.4 mph - N/A   Clear
7:55 AM 41.9 °F 35.9 °F 28.4 °F 59% 30.17 in 10.0 mi NNW 10.4 mph - N/A   Clear
8:15 AM 41.9 °F 35.9 °F 28.4 °F 59% 30.17 in 10.0 mi NNW 10.4 mph - N/A   Clear
8:35 AM 42.8 °F 36.6 °F 28.4 °F 57% 30.18 in 10.0 mi North 11.5 mph 17.3 mph N/A   Clear
8:55 AM 43.9 °F 36.8 °F 28.4 °F 55% 30.19 in 10.0 mi North 15.0 mph - N/A   Clear
9:15 AM 44.1 °F 37.1 °F 28.4 °F 54% 30.19 in 10.0 mi North 15.0 mph - N/A   Clear
9:35 AM 44.4 °F 37.2 °F 28.6 °F 54% 30.20 in 10.0 mi North 16.1 mph - N/A   Clear
9:55 AM 46.4 °F 40.1 °F 28.9 °F 51% 30.21 in 10.0 mi North 15.0 mph 20.7 mph N/A   Clear
10:15 AM 47.1 °F - 28.4 °F 48% 30.21 in 10.0 mi North 16.1 mph - N/A   Clear
10:35 AM 48.2 °F - 28.6 °F 47% 30.22 in 10.0 mi North 17.3 mph 23.0 mph N/A   Clear
10:55 AM 49.5 °F - 28.4 °F 44% 30.22 in 10.0 mi North 20.7 mph 25.3 mph N/A   Clear
11:15 AM 50.5 °F - 28.6 °F 43% 30.22 in 10.0 mi North 17.3 mph 21.9 mph N/A   Clear
11:35 AM 51.8 °F - 28.6 °F 41% 30.23 in 10.0 mi NNW 13.8 mph 19.6 mph N/A   Clear
11:55 AM 53.2 °F - 28.2 °F 38% 30.23 in 10.0 mi NNE 13.8 mph 18.4 mph N/A   Clear
12:15 PM 54.1 °F - 27.5 °F 36% 30.23 in 10.0 mi NNW 12.7 mph - N/A   Clear
12:35 PM 55.6 °F - 28.6 °F 36% 30.23 in 10.0 mi North 16.1 mph 21.9 mph N/A   Clear
12:55 PM 56.3 °F - 27.9 °F 34% 30.24 in 10.0 mi NNW 11.5 mph 19.6 mph N/A   Clear
1:15 PM 57.4 °F - 29.3 °F 34% 30.22 in 10.0 mi North 16.1 mph 19.6 mph N/A   Clear
1:35 PM 57.9 °F - 28.8 °F 33% 30.21 in 10.0 mi NE 11.5 mph 21.9 mph N/A   Clear
1:55 PM 59.2 °F - 28.8 °F 31% 30.21 in 10.0 mi NE 6.9 mph - N/A   Clear
2:15 PM 59.0 °F - 28.0 °F 31% 30.21 in 10.0 mi NNW 8.1 mph - N/A   Clear
2:35 PM 60.3 °F - 28.8 °F 30% 30.20 in 10.0 mi NNW 8.1 mph - N/A   Clear
2:55 PM 60.6 °F - 29.7 °F 31% 30.19 in 10.0 mi North 11.5 mph 16.1 mph N/A   Clear
3:15 PM 61.0 °F - 28.9 °F 30% 30.18 in 10.0 mi North 9.2 mph - N/A   Clear
3:35 PM 62.6 °F - 30.0 °F 29% 30.17 in 10.0 mi NNE 11.5 mph 17.3 mph N/A   Clear
3:55 PM 62.6 °F - 29.8 °F 29% 30.16 in 10.0 mi NE 12.7 mph 18.4 mph N/A   Clear
4:15 PM 62.6 °F - 29.3 °F 28% 30.16 in 10.0 mi North 11.5 mph 17.3 mph N/A   Clear
4:35 PM 62.8 °F - 28.9 °F 28% 30.16 in 10.0 mi North 10.4 mph - N/A   Clear
4:55 PM 63.5 °F - 29.5 °F 28% 30.15 in 10.0 mi NNE 11.5 mph 16.1 mph N/A   Clear
5:15 PM 63.3 °F - 28.4 °F 27% 30.14 in 10.0 mi North 9.2 mph - N/A   Clear
5:35 PM 63.1 °F - 28.8 °F 27% 30.14 in 10.0 mi NNE 12.7 mph 16.1 mph N/A   Clear
5:55 PM 63.1 °F - 28.4 °F 27% 30.15 in 10.0 mi NE 10.4 mph - N/A   Clear
6:15 PM 63.5 °F - 28.2 °F 26% 30.15 in 10.0 mi North 6.9 mph - N/A   Clear
6:35 PM 62.8 °F - 27.3 °F 26% 30.15 in 10.0 mi NNE 6.9 mph 17.3 mph N/A   Clear
6:55 PM 62.1 °F - 27.0 °F 26% 30.16 in 10.0 mi North 9.2 mph - N/A   Clear
7:15 PM 61.5 °F - 26.2 °F 26% 30.17 in 10.0 mi North 8.1 mph - N/A   Clear
7:35 PM 59.9 °F - 26.6 °F 28% 30.18 in 10.0 mi NNE 5.8 mph - N/A   Clear
7:55 PM 57.6 °F - 27.1 °F 31% 30.17 in 10.0 mi NNE 5.8 mph - N/A   Clear
8:15 PM 57.2 °F - 26.8 °F 31% 30.18 in 10.0 mi NNE 5.8 mph - N/A   Clear
8:35 PM 56.3 °F - 27.0 °F 32% 30.19 in 10.0 mi NNE 4.6 mph - N/A   Clear
8:55 PM 55.2 °F - 27.9 °F 35% 30.19 in 10.0 mi North 3.5 mph - N/A   Clear
9:15 PM 54.5 °F - 27.7 °F 36% 30.20 in 10.0 mi North 4.6 mph - N/A   Clear
9:35 PM 54.5 °F - 26.6 °F 34% 30.20 in 10.0 mi North 3.5 mph - N/A   Clear
9:55 PM 53.1 °F - 27.3 °F 37% 30.21 in 10.0 mi North 4.6 mph - N/A   Clear
10:15 PM 53.2 °F - 25.9 °F 35% 30.22 in 10.0 mi North 3.5 mph - N/A   Clear
10:35 PM 53.6 °F - 25.3 °F 34% 30.22 in 10.0 mi North 3.5 mph - N/A   Clear
10:55 PM 53.2 °F - 24.8 °F 33% 30.23 in 10.0 mi North 3.5 mph - N/A   Clear
11:15 PM 52.7 °F - 24.8 °F 34% 30.23 in 10.0 mi Calm Calm - N/A   Clear
11:35 PM 52.0 °F - 24.6 °F 35% 30.24 in 10.0 mi Calm Calm - N/A   Clear
11:55 PM 52.0 °F - 24.3 °F 34% 30.23 in 10.0 mi Calm Calm - N/A   Clear